Terminal Aerodrome Forecast
Issued by NWS

Home | Current Version | Previous Version | Text Only | Print | Product List | Glossary On
Versions: 1 2 3 4 5 6 7 8 9 10 11 12 13 14 15 16 17 18 19 20 21 22
894
FTUS46 KLOX 242323
TAFPRB
TAF
KPRB 242323Z 2500/2524 21009KT P6SM OVC070
     FM250200 20010KT P6SM -SHRA SCT025 OVC080
     FM250400 15007KT P6SM -RA SCT015 OVC025
     FM250900 VRB03KT P6SM -SHRA BKN015 OVC025
     FM251200 VRB03KT P6SM VCSH SCT015 OVC025
     FM251600 32006KT P6SM BKN030
     FM252100 22013KT P6SM BKN030=

USA.gov is the U.S. government's official web portal to all federal, state and local government web resources and services.